TimeCST,TemperatureF,Dew PointF,Humidity,Sea Level PressureIn,VisibilityMPH,Wind Direction,Wind SpeedMPH,Gust SpeedMPH,PrecipitationIn,Events,Conditions,WindDirDegrees,DateUTC
12:03 AM,44.6,42.8,93,30.22,1.2,East,5.8,-,N/A,,Partly Cloudy,80,2012-11-21 06:03:00
12:10 AM,42.8,41.0,93,30.22,0.8,East,3.5,-,N/A,,Mist,90,2012-11-21 06:10:00
12:21 AM,42.8,42.8,100,30.22,1.5,East,3.5,-,N/A,,Partly Cloudy,100,2012-11-21 06:21:00
12:52 AM,44.6,42.8,93,30.21,2.5,ESE,3.5,-,N/A,,Clear,120,2012-11-21 06:52:00
12:54 AM,43.0,43.0,100,30.22,1.0,ESE,4.6,-,N/A,,Mist,120,2012-11-21 06:54:00
1:01 AM,44.6,42.8,93,30.21,0.8,ESE,5.8,-,N/A,,Mist,120,2012-11-21 07:01:00
1:05 AM,46.4,44.6,93,30.21,1.2,ESE,5.8,-,N/A,,Partly Cloudy,120,2012-11-21 07:05:00
1:14 AM,46.4,44.6,93,30.22,2.5,ESE,5.8,-,N/A,,Partly Cloudy,120,2012-11-21 07:14:00
1:21 AM,42.8,42.8,100,30.22,1.0,SE,3.5,-,N/A,,Mist,140,2012-11-21 07:21:00
1:27 AM,41.0,39.2,93,30.22,0.2,SE,3.5,-,N/A,Fog,Fog,140,2012-11-21 07:27:00
1:54 AM,42.1,42.1,100,30.23,0.2,Calm,Calm,-,N/A,Fog,Fog,0,2012-11-21 07:54:00
2:54 AM,42.1,41.0,96,30.23,0.2,South,3.5,-,N/A,Fog,Fog,190,2012-11-21 08:54:00
3:21 AM,42.8,41.0,93,30.22,0.2,South,4.6,-,N/A,Fog,Fog,190,2012-11-21 09:21:00
3:33 AM,44.6,42.8,93,30.22,0.2,South,5.8,-,N/A,Fog,Fog,170,2012-11-21 09:33:00
3:54 AM,41.0,39.9,96,30.23,0.2,South,4.6,-,N/A,Fog,Fog,190,2012-11-21 09:54:00
4:40 AM,42.8,41.0,93,30.22,0.2,SSW,5.8,-,N/A,Fog,Fog,200,2012-11-21 10:40:00
4:54 AM,43.0,42.1,97,30.23,0.2,SSW,4.6,-,N/A,Fog,Fog,200,2012-11-21 10:54:00
5:20 AM,39.2,39.2,100,30.23,0.2,SSE,4.6,-,N/A,Fog,Fog,160,2012-11-21 11:20:00
5:36 AM,35.6,35.6,100,30.23,0.2,South,5.8,-,N/A,Fog,Fog,190,2012-11-21 11:36:00
5:54 AM,36.0,34.0,93,30.25,0.2,South,5.8,-,N/A,Fog,Fog,190,2012-11-21 11:54:00
6:07 AM,33.8,33.8,100,30.23,0.2,South,6.9,-,N/A,Fog,Fog,190,2012-11-21 12:07:00
6:54 AM,33.1,32.0,96,30.26,0.2,South,5.8,-,N/A,Fog,Fog,190,2012-11-21 12:54:00
7:23 AM,33.8,32.0,93,30.25,0.2,South,5.8,-,0.00,Fog,Fog,170,2012-11-21 13:23:00
7:54 AM,34.0,33.1,96,30.26,0.2,South,5.8,-,0.00,Fog,Fog,170,2012-11-21 13:54:00
8:10 AM,35.6,35.6,100,30.25,0.2,SSE,4.6,-,N/A,Fog,Fog,150,2012-11-21 14:10:00
8:54 AM,41.0,41.0,100,30.27,0.5,South,5.8,-,N/A,Fog,Fog,180,2012-11-21 14:54:00
9:10 AM,44.6,42.8,93,30.26,1.2,South,5.8,-,N/A,,Partly Cloudy,190,2012-11-21 15:10:00
9:19 AM,44.6,44.6,100,30.26,3.0,South,6.9,-,N/A,,Clear,180,2012-11-21 15:19:00
9:54 AM,48.9,48.0,97,30.27,6.0,South,5.8,-,N/A,,Clear,170,2012-11-21 15:54:00
10:54 AM,55.9,46.9,72,30.26,9.0,South,9.2,-,N/A,,Clear,180,2012-11-21 16:54:00
11:54 AM,60.1,48.0,64,30.23,10.0,South,6.9,-,N/A,,Clear,180,2012-11-21 17:54:00
12:54 PM,64.0,43.0,46,30.20,10.0,SSW,10.4,-,N/A,,Clear,210,2012-11-21 18:54:00
1:54 PM,64.9,42.1,43,30.17,10.0,South,9.2,-,N/A,,Clear,170,2012-11-21 19:54:00
2:54 PM,64.9,43.0,45,30.15,10.0,SSE,6.9,-,N/A,,Clear,150,2012-11-21 20:54:00
3:54 PM,63.0,42.1,46,30.14,10.0,South,8.1,-,N/A,,Clear,170,2012-11-21 21:54:00
4:54 PM,57.9,39.9,51,30.14,10.0,South,5.8,-,N/A,,Clear,170,2012-11-21 22:54:00
5:54 PM,55.9,37.9,51,30.13,10.0,SE,8.1,-,N/A,,Clear,140,2012-11-21 23:54:00
6:54 PM,52.0,37.9,59,30.13,10.0,SSE,8.1,-,N/A,,Clear,150,2012-11-22 00:54:00
7:54 PM,51.1,36.0,56,30.13,10.0,SSE,9.2,-,N/A,,Clear,160,2012-11-22 01:54:00
8:54 PM,50.0,34.0,54,30.12,10.0,South,10.4,-,N/A,,Clear,170,2012-11-22 02:54:00
9:54 PM,50.0,34.0,54,30.11,10.0,South,10.4,-,N/A,,Clear,170,2012-11-22 03:54:00
10:54 PM,50.0,36.0,59,30.09,10.0,SSE,11.5,-,N/A,,Clear,160,2012-11-22 04:54:00
11:54 PM,48.9,37.9,66,30.09,10.0,South,11.5,-,N/A,,Clear,180,2012-11-22 05:54:00